GW0655 Weather Reports


time (UTC)temp
C
wind
direction
speed
KPH
gust
KPH
rain 1hr
cm
rain 24hr
cm
rain mn
cm
humidity
%
barometer
mb
20260505064801 21 259 9.7 12.9 0.00 0.00 0.00 87 1010.7
20260505064258 21 224 8.0 14.5 0.00 0.00 0.00 87 1010.7
20260505063756 21 253 4.8 8.0 0.00 0.00 0.00 87 1010.7
20260505063252 21 201 3.2 4.8 0.00 0.00 0.00 87 1010.7
20260505062749 21 213 1.6 3.2 0.00 0.00 0.00 87 1010.7
20260505062246 21 198 4.8 4.8 0.00 0.00 0.00 87 1011.0
20260505061743 21 164 4.8 8.0 0.00 0.00 0.00 86 1010.7
20260505061241 21 194 11.3 14.5 0.00 0.00 0.00 86 1011.0
20260505060738 21 160 4.8 8.0 0.00 0.00 0.00 86 1011.0
20260505060235 21 240 11.3 14.5 0.00 0.00 0.00 86 1011.0
20260505055730 21 151 4.8 8.0 0.00 0.00 0.00 86 1011.0
20260505055227 21 190 4.8 8.0 0.00 0.00 0.00 86 1011.0
20260505054724 21 189 4.8 4.8 0.00 0.00 0.00 86 1011.3
20260505054222 21 153 3.2 4.8 0.00 0.00 0.00 85 1011.3
20260505053720 21 157 9.7 12.9 0.00 0.00 0.00 85 1011.0
20260505053216 21 177 6.4 8.0 0.00 0.00 0.00 85 1011.0
20260505052714 21 223 8.0 11.3 0.00 0.00 0.00 85 1011.0
20260505052210 21 131 6.4 9.7 0.00 0.00 0.00 85 1011.0
20260505051708 21 154 11.3 14.5 0.00 0.00 0.00 85 1011.0
20260505051206 21 228 8.0 11.3 0.00 0.00 0.00 85 1010.7
20260505050703 21 222 3.2 3.2 0.00 0.00 0.00 85 1011.0
20260505050201 21 206 4.8 8.0 0.00 0.00 0.00 85 1011.0
20260505041631 22 241 4.8 4.8 0.00 0.00 0.00 83 1011.0
20260505041128 22 214 8.0 9.7 0.00 0.00 0.00 83 1011.0
20260505040625 22 117 6.4 9.7 0.00 0.00 0.00 83 1010.7
20260505040122 22 195 6.4 8.0 0.00 0.00 0.00 83 1011.3
20260505035619 22 186 1.6 3.2 0.00 0.00 0.00 82 1011.0
20260505035115 22 243 3.2 4.8 0.00 0.00 0.00 82 1010.7
20260505034612 22 178 4.8 8.0 0.00 0.00 0.00 82 1010.7
20260505034109 22 222 3.2 4.8 0.00 0.00 0.00 81 1010.7
20260505033605 22 204 3.2 8.0 0.00 0.00 0.00 80 1011.0
20260505033104 23 188 6.4 8.0 0.00 0.00 0.00 80 1010.7
20260505032601 23 180 6.4 8.0 0.00 0.00 0.00 79 1010.7
20260505032057 23 184 1.6 3.2 0.00 0.00 0.00 79 1011.0
20260505031555 23 193 3.2 4.8 0.00 0.00 0.00 79 1010.7
20260505031051 23 157 1.6 3.2 0.00 0.00 0.00 79 1010.7
20260505030548 23 189 3.2 4.8 0.00 0.00 0.00 78 1010.7
20260505030044 23 232 1.6 3.2 0.00 0.00 0.00 78 1011.3
20260505025540 23 202 4.8 4.8 0.00 0.00 0.00 77 1010.7
20260505025039 23 209 8.0 9.7 0.00 0.00 0.00 77 1011.0
20260505024536 23 192 8.0 9.7 0.00 0.00 0.00 77 1011.0
20260505024033 23 177 8.0 14.5 0.00 0.00 0.00 77 1010.7
20260505023530 23 232 4.8 4.8 0.00 0.00 0.00 76 1010.7
20260505023027 23 218 1.6 3.2 0.00 0.00 0.00 76 1010.7
20260505022525 23 189 9.7 12.9 0.00 0.00 0.00 76 1010.7
20260505022022 23 184 4.8 4.8 0.00 0.00 0.00 75 1010.7
20260505021518 24 174 8.0 11.3 0.00 0.00 0.00 75 1010.7
20260505021014 24 190 1.6 3.2 0.00 0.00 0.00 75 1010.7
20260505020509 24 244 1.6 3.2 0.00 0.00 0.00 74 1010.7
20260505020006 24 207 6.4 11.3 0.00 0.00 0.00 74 1010.7
20260505015503 24 230 9.7 11.3 0.00 0.00 0.00 73 1010.7
20260505015000 24 254 4.8 8.0 0.00 0.00 0.00 73 1010.7
20260505014457 25 134 3.2 4.8 0.00 0.00 0.00 72 1010.3
20260505013954 25 210 3.2 3.2 0.00 0.00 0.00 72 1010.7
20260505013451 25 204 3.2 3.2 0.00 0.00 0.00 71 1010.7
20260505012949 25 190 3.2 4.8 0.00 0.00 0.00 70 1010.3
20260505012447 25 192 4.8 9.7 0.00 0.00 0.00 70 1010.7
20260505011943 25 216 8.0 11.3 0.00 0.00 0.00 69 1010.3
20260505011439 25 182 3.2 3.2 0.00 0.00 0.00 69 1010.0
20260505010936 25 174 4.8 8.0 0.00 0.00 0.00 68 1010.0
20260505010432 25 187 1.6 3.2 0.00 0.00 0.00 68 1010.3
20260505005928 25 216 6.4 8.0 0.00 0.00 0.00 67 1010.0
20260505005425 25 141 4.8 8.0 0.00 0.00 0.00 67 1010.3
20260505004923 26 171 3.2 3.2 0.00 0.00 0.00 66 1010.3
20260505004419 26 159 4.8 4.8 0.00 0.00 0.00 65 1010.3
20260505003916 26 178 8.0 11.3 0.00 0.00 0.00 65 1010.3
20260505003413 26 174 4.8 8.0 0.00 0.00 0.00 64 1010.0
20260505002909 26 162 1.6 1.6 0.00 0.00 0.00 64 1010.0
20260505002406 26 172 4.8 8.0 0.00 0.00 0.00 63 1010.0
20260505001904 26 151 8.0 11.3 0.00 0.00 0.00 63 1010.0
20260505001401 26 224 6.4 9.7 0.00 0.00 0.00 63 1010.0
20260505000859 26 202 8.0 11.3 0.00 0.00 0.00 62 1010.3
20260505000358 26 190 8.0 11.3 0.00 0.00 0.00 62 1010.3
20260504235853 26 234 9.7 12.9 0.00 0.00 0.00 61 1010.3
20260504235350 26 169 8.0 9.7 0.00 0.00 0.00 61 1010.3
20260504234846 27 209 8.0 11.3 0.00 0.00 0.00 61 1010.3
20260504234344 27 220 11.3 12.9 0.00 0.00 0.00 60 1010.3
20260504233840 26 170 4.8 8.0 0.00 0.00 0.00 61 1010.7
20260504233336 26 182 11.3 12.9 0.00 0.00 0.00 61 1010.7
20260504232833 27 253 4.8 8.0 0.00 0.00 0.00 60 1010.3
20260504232330 27 216 11.3 12.9 0.00 0.00 0.00 60 1010.7
20260504231827 27 172 8.0 11.3 0.00 0.00 0.00 59 1010.7
20260504231323 27 100 3.2 4.8 0.00 0.00 0.00 60 1010.7
20260504230819 27 213 4.8 8.0 0.00 0.00 0.00 59 1011.0
20260504230318 27 179 6.4 9.7 0.00 0.00 0.00 59 1010.7
20260504225816 27 207 8.0 9.7 0.00 0.00 0.00 59 1011.0
20260504225312 27 203 6.4 8.0 0.00 0.00 0.00 59 1011.0
20260504224809 27 104 11.3 14.5 0.00 0.00 0.00 59 1010.7
20260504224306 27 249 11.3 16.1 0.00 0.00 0.00 58 1011.0
20260504223803 27 180 11.3 12.9 0.00 0.00 0.00 59 1011.0
20260504223258 27 226 11.3 14.5 0.00 0.00 0.00 59 1011.0
20260504222755 27 236 9.7 12.9 0.00 0.00 0.00 58 1011.0
20260504222252 27 150 6.4 9.7 0.00 0.00 0.00 58 1011.0
20260504221750 27 217 6.4 8.0 0.00 0.00 0.00 59 1011.3
20260504221247 27 202 4.8 4.8 0.00 0.00 0.00 58 1011.3
20260504220743 28 264 6.4 8.0 0.00 0.00 0.00 57 1011.3
20260504220241 27 195 8.0 11.3 0.00 0.00 0.00 58 1011.3
20260504215738 27 228 11.3 14.5 0.00 0.00 0.00 58 1011.3
20260504215234 27 187 6.4 8.0 0.00 0.00 0.00 58 1011.3
20260504214730 27 176 4.8 8.0 0.00 0.00 0.00 59 1011.3
20260504214227 27 227 8.0 9.7 0.00 0.00 0.00 58 1011.7
20260504213724 27 174 6.4 11.3 0.00 0.00 0.00 58 1011.7
20260504213220 27 293 8.0 11.3 0.00 0.00 0.00 59 1011.7
20260504212717 27 205 4.8 4.8 0.00 0.00 0.00 58 1011.7
20260504212214 27 215 11.3 14.5 0.00 0.00 0.00 57 1011.7
20260504211711 27 188 11.3 16.1 0.00 0.00 0.00 58 1011.7
20260504211207 27 196 4.8 8.0 0.00 0.00 0.00 58 1012.0
20260504210705 27 216 4.8 8.0 0.00 0.00 0.00 58 1012.4
20260504210201 27 226 4.8 8.0 0.00 0.00 0.00 58 1012.0
20260504205659 28 165 9.7 14.5 0.00 0.00 0.00 57 1012.0
20260504205156 27 215 6.4 9.7 0.00 0.00 0.00 57 1012.0
20260504204654 27 156 4.8 9.7 0.00 0.00 0.00 58 1012.0
20260504204153 27 151 14.5 20.9 0.00 0.00 0.00 57 1012.4
20260504203651 27 161 9.7 12.9 0.00 0.00 0.00 57 1012.4
20260504203148 27 176 8.0 11.3 0.00 0.00 0.00 57 1012.7
20260504202643 28 137 14.5 25.7 0.00 0.00 0.00 57 1012.7
20260504202140 27 205 8.0 11.3 0.00 0.00 0.00 58 1012.7
20260504201637 27 219 9.7 16.1 0.00 0.00 0.00 58 1012.7
20260504201135 27 193 9.7 12.9 0.00 0.00 0.00 58 1013.1
20260504200632 27 285 11.3 16.1 0.00 0.00 0.00 57 1013.1
20260504200128 27 181 11.3 16.1 0.00 0.00 0.00 57 1013.5
20260504195624 27 271 3.2 4.8 0.00 0.00 0.00 58 1013.5
20260504195121 28 229 6.4 8.0 0.00 0.00 0.00 56 1013.5
20260504194618 27 198 6.4 9.7 0.00 0.00 0.00 58 1013.5
20260504194113 27 192 8.0 12.9 0.00 0.00 0.00 56 1013.8
20260504193610 27 162 4.8 9.7 0.00 0.00 0.00 58 1013.5
20260504193109 27 206 11.3 14.5 0.00 0.00 0.00 57 1013.8
20260504192606 27 215 11.3 14.5 0.00 0.00 0.00 58 1013.5
20260504192104 27 205 9.7 11.3 0.00 0.00 0.00 59 1013.8
20260504191602 27 226 12.9 14.5 0.00 0.00 0.00 56 1014.1
20260504191058 27 142 8.0 9.7 0.00 0.00 0.00 56 1013.8
20260504190554 27 275 9.7 14.5 0.00 0.00 0.00 58 1014.1
20260504190050 27 220 4.8 4.8 0.00 0.00 0.00 58 1014.1
20260504185547 27 231 3.2 8.0 0.00 0.00 0.00 58 1014.1
20260504185044 27 173 8.0 11.3 0.00 0.00 0.00 58 1013.8
20260504184539 26 221 3.2 3.2 0.00 0.00 0.00 59 1014.1
20260504184035 27 85 8.0 11.3 0.00 0.00 0.00 58 1014.1
20260504183532 27 217 8.0 11.3 0.00 0.00 0.00 57 1014.5
20260504183030 26 201 6.4 9.7 0.00 0.00 0.00 59 1014.5
20260504182527 26 166 6.4 8.0 0.00 0.00 0.00 59 1014.5
20260504182024 26 224 8.0 11.3 0.00 0.00 0.00 58 1014.8
20260504181521 26 138 14.5 17.7 0.00 0.00 0.00 61 1014.8
20260504181020 26 215 14.5 20.9 0.00 0.00 0.00 60 1014.8
20260504180518 26 197 4.8 8.0 0.00 0.00 0.00 60 1014.5
20260504180017 26 192 4.8 8.0 0.00 0.00 0.00 61 1014.8
20260504175513 26 246 16.1 17.7 0.00 0.00 0.00 61 1014.8
20260504175011 26 183 4.8 8.0 0.00 0.00 0.00 62 1014.8
20260504174508 25 191 11.3 16.1 0.00 0.00 0.00 62 1015.2
20260504174005 25 226 14.5 16.1 0.00 0.00 0.00 61 1015.5
20260504173502 25 221 6.4 16.1 0.00 0.00 0.00 64 1015.5
20260504172959 25 194 12.9 14.5 0.00 0.00 0.00 63 1015.5
20260504172455 25 157 4.8 9.7 0.00 0.00 0.00 65 1015.8
20260504171951 25 208 6.4 8.0 0.00 0.00 0.00 65 1015.5
20260504171449 24 208 8.0 9.7 0.00 0.00 0.00 66 1015.8
20260504170945 23 259 6.4 9.7 0.00 0.00 0.00 67 1015.8
20260504170442 24 208 9.7 12.9 0.00 0.00 0.00 67 1015.8
20260504160402 23 234 8.0 11.3 0.00 0.00 0.00 67 1016.5
20260504150826 22 192 8.0 9.7 0.00 0.00 0.00 68 1016.5
20260504150322 22 183 8.0 9.7 0.00 0.00 0.00 69 1016.9
20260504141252 20 116 4.8 8.0 0.00 0.00 0.00 72 1016.9
20260504140749 20 204 6.4 8.0 0.00 0.00 0.00 73 1016.9
20260504140244 20 191 8.0 8.0 0.00 0.00 0.00 73 1017.2
20260504130713 17 217 3.2 3.2 0.00 0.00 0.00 81 1016.9
20260504130209 16 232 0.0 1.6 0.00 0.00 0.00 82 1016.9
20260504120133 15 234 1.6 3.2 0.00 0.00 0.00 86 1016.2
20260504110600 15 174 1.6 3.2 0.00 0.00 0.00 87 1016.9
20260504100522 15 229 1.6 1.6 0.00 0.00 0.00 83 1016.5
20260504081916 16 229 0.0 1.6 0.00 0.00 0.00 80 1017.2
20260504081413 16 248 1.6 1.6 0.00 0.00 0.00 79 1017.5
20260504080908 16 246 0.0 0.0 0.00 0.00 0.00 79 1017.2
20260504080405 16 233 0.0 0.0 0.00 0.00 0.00 79 1017.2
20260504070333 17 210 1.6 1.6 0.00 0.00 0.00 73 1018.2